Time,TemperatureF,DewpointF,PressureIn,WindDirection,WindDirectionDegrees,WindSpeedMPH,WindSpeedGustMPH,Humidity,HourlyPrecipIn,Conditions,Clouds,dailyrainin,SolarRadiationWatts/m^2,SoftwareType,DateUTC
2013-01-21 00:22:00,18.0,15.0,30.38,South,176,2.0,3.0,90,-99.99,,,-99.99,0.000000,,2013-01-21 08:22:00,
2013-01-21 00:32:00,18.0,15.0,30.38,South,176,2.0,3.0,90,-99.99,,,-99.99,0.000000,,2013-01-21 08:32:00,
2013-01-21 00:40:00,16.0,13.0,30.36,WNW,292,1.0,3.0,90,-99.99,,,-99.99,0.000000,,2013-01-21 08:40:00,
2013-01-21 01:22:00,16.0,13.0,30.36,WNW,292,1.0,3.0,90,-99.99,,,-99.99,0.000000,,2013-01-21 09:22:00,
2013-01-21 01:33:00,16.0,13.0,30.36,WNW,292,1.0,3.0,90,-99.99,,,-99.99,0.000000,,2013-01-21 09:33:00,
2013-01-21 02:22:00,14.0,13.0,30.38,NNW,341,2.0,3.0,93,-99.99,,,-99.99,0.000000,,2013-01-21 10:22:00,
2013-01-21 03:22:00,13.0,11.0,30.40,SSE,150,2.0,5.0,92,-99.99,,,-99.99,0.000000,,2013-01-21 11:22:00,
2013-01-21 03:32:00,13.0,11.0,30.40,SSE,150,2.0,5.0,92,-99.99,,,-99.99,0.000000,,2013-01-21 11:32:00,
2013-01-21 03:40:00,13.0,11.0,30.39,South,188,3.0,5.0,91,-99.99,,,-99.99,0.000000,,2013-01-21 11:40:00,
2013-01-21 04:22:00,13.0,11.0,30.39,South,188,3.0,5.0,91,-99.99,,,-99.99,0.000000,,2013-01-21 12:22:00,
2013-01-21 04:32:00,13.0,11.0,30.39,South,188,3.0,5.0,91,-99.99,,,-99.99,0.000000,,2013-01-21 12:32:00,
2013-01-21 05:23:00,11.0,9.0,30.38,SE,125,3.0,4.0,90,-99.99,,,-99.99,0.000000,,2013-01-21 13:23:00,
2013-01-21 06:23:00,11.0,8.0,30.36,WNW,295,2.0,3.0,90,-99.99,,,-99.99,0.000000,,2013-01-21 14:23:00,
2013-01-21 07:23:00,10.0,8.0,30.36,NE,52,1.0,3.0,91,-99.99,,,-99.99,0.000000,,2013-01-21 15:23:00,
2013-01-21 07:33:00,10.0,8.0,30.36,NE,52,1.0,3.0,91,-99.99,,,-99.99,0.000000,,2013-01-21 15:33:00,
2013-01-21 08:23:00,11.0,9.0,30.36,SSE,159,1.0,2.0,91,-99.99,,,-99.99,40.000000,,2013-01-21 16:23:00,
2013-01-21 08:33:00,11.0,9.0,30.36,SSE,159,1.0,2.0,91,-99.99,,,-99.99,40.000000,,2013-01-21 16:33:00,
2013-01-21 08:40:00,18.0,14.0,30.39,NNE,22,1.0,2.0,83,-99.99,,,-99.99,210.000000,,2013-01-21 16:40:00,
2013-01-21 09:22:00,18.0,14.0,30.39,NNE,22,1.0,2.0,83,-99.99,,,-99.99,210.000000,,2013-01-21 17:22:00,
2013-01-21 09:33:00,18.0,14.0,30.39,NNE,22,1.0,2.0,83,-99.99,,,-99.99,210.000000,,2013-01-21 17:33:00,
2013-01-21 09:40:00,23.0,17.0,30.40,North,354,1.0,2.0,78,-99.99,,,-99.99,360.000000,,2013-01-21 17:40:00,
2013-01-21 10:22:00,23.0,17.0,30.40,North,354,1.0,2.0,78,-99.99,,,-99.99,360.000000,,2013-01-21 18:22:00,
2013-01-21 10:33:00,23.0,17.0,30.40,North,354,1.0,2.0,78,-99.99,,,-99.99,360.000000,,2013-01-21 18:33:00,
2013-01-21 10:40:00,28.0,20.0,30.40,West,268,1.0,2.0,71,-99.99,,,-99.99,510.000000,,2013-01-21 18:40:00,
2013-01-21 11:22:00,28.0,20.0,30.40,West,268,1.0,2.0,71,-99.99,,,-99.99,510.000000,,2013-01-21 19:22:00,
2013-01-21 11:33:00,28.0,20.0,30.40,West,268,1.0,2.0,71,-99.99,,,-99.99,510.000000,,2013-01-21 19:33:00,
2013-01-21 11:40:00,33.0,20.0,30.36,SSE,156,3.0,5.0,60,-99.99,,,-99.99,570.000000,,2013-01-21 19:40:00,
2013-01-21 12:22:00,33.0,20.0,30.36,SSE,156,3.0,5.0,60,-99.99,,,-99.99,570.000000,,2013-01-21 20:22:00,
2013-01-21 12:32:00,33.0,20.0,30.36,SSE,156,3.0,5.0,60,-99.99,,,-99.99,570.000000,,2013-01-21 20:32:00,
2013-01-21 12:40:00,36.0,23.0,30.31,SW,220,2.0,5.0,58,-99.99,,,-99.99,580.000000,,2013-01-21 20:40:00,
2013-01-21 13:22:00,36.0,23.0,30.31,SW,220,2.0,5.0,58,-99.99,,,-99.99,580.000000,,2013-01-21 21:22:00,
2013-01-21 13:33:00,36.0,23.0,30.31,SW,220,2.0,5.0,58,-99.99,,,-99.99,580.000000,,2013-01-21 21:33:00,
2013-01-21 13:40:00,38.0,21.0,30.27,West,278,1.0,3.0,50,-99.99,,,-99.99,520.000000,,2013-01-21 21:40:00,
2013-01-21 14:23:00,38.0,21.0,30.27,West,278,1.0,3.0,50,-99.99,,,-99.99,520.000000,,2013-01-21 22:23:00,
2013-01-21 14:33:00,38.0,21.0,30.27,West,278,1.0,3.0,50,-99.99,,,-99.99,520.000000,,2013-01-21 22:33:00,
2013-01-21 14:40:00,41.0,16.0,30.26,NNE,23,1.0,3.0,36,-99.99,,,-99.99,410.000000,,2013-01-21 22:40:00,
2013-01-21 15:22:00,41.0,16.0,30.26,NNE,23,1.0,3.0,36,-99.99,,,-99.99,410.000000,,2013-01-21 23:22:00,
2013-01-21 15:33:00,41.0,16.0,30.26,NNE,23,1.0,3.0,36,-99.99,,,-99.99,410.000000,,2013-01-21 23:33:00,
2013-01-21 15:40:00,44.0,21.0,30.25,West,264,0.0,1.0,39,-99.99,,,-99.99,250.000000,,2013-01-21 23:40:00,
2013-01-21 16:22:00,44.0,21.0,30.25,West,264,0.0,1.0,39,-99.99,,,-99.99,250.000000,,2013-01-22 00:22:00,
2013-01-21 16:32:00,44.0,21.0,30.25,West,264,0.0,1.0,39,-99.99,,,-99.99,250.000000,,2013-01-22 00:32:00,
2013-01-21 17:23:00,36.0,25.0,30.24,SW,224,2.0,2.0,64,-99.99,,,-99.99,10.000000,,2013-01-22 01:23:00,
2013-01-21 17:32:00,36.0,25.0,30.24,SW,224,2.0,2.0,64,-99.99,,,-99.99,10.000000,,2013-01-22 01:32:00,
2013-01-21 17:40:00,29.0,23.0,30.25,SW,230,1.0,2.0,78,-99.99,,,-99.99,0.000000,,2013-01-22 01:40:00,
2013-01-21 18:22:00,29.0,23.0,30.25,SW,230,1.0,2.0,78,-99.99,,,-99.99,0.000000,,2013-01-22 02:22:00,
2013-01-21 18:40:00,26.0,22.0,30.27,SE,138,1.0,2.0,84,-99.99,,,-99.99,0.000000,,2013-01-22 02:40:00,
2013-01-21 19:40:00,25.0,21.0,30.29,SSW,208,2.0,3.0,85,-99.99,,,-99.99,0.000000,,2013-01-22 03:40:00,
2013-01-21 20:22:00,25.0,21.0,30.29,SSW,208,2.0,3.0,85,-99.99,,,-99.99,0.000000,,2013-01-22 04:22:00,
2013-01-21 20:32:00,25.0,21.0,30.29,SSW,208,2.0,3.0,85,-99.99,,,-99.99,0.000000,,2013-01-22 04:32:00,
2013-01-21 20:40:00,23.0,20.0,30.29,WSW,242,1.0,1.0,87,-99.99,,,-99.99,0.000000,,2013-01-22 04:40:00,
2013-01-21 21:22:00,23.0,20.0,30.29,WSW,242,1.0,1.0,87,-99.99,,,-99.99,0.000000,,2013-01-22 05:22:00,
2013-01-21 21:32:00,23.0,20.0,30.29,WSW,242,1.0,1.0,87,-99.99,,,-99.99,0.000000,,2013-01-22 05:32:00,
2013-01-21 21:40:00,22.0,19.0,30.30,West,267,1.0,2.0,89,-99.99,,,-99.99,0.000000,,2013-01-22 05:40:00,
2013-01-21 22:22:00,22.0,19.0,30.30,West,267,1.0,2.0,89,-99.99,,,-99.99,0.000000,,2013-01-22 06:22:00,
2013-01-21 22:32:00,22.0,19.0,30.30,West,267,1.0,2.0,89,-99.99,,,-99.99,0.000000,,2013-01-22 06:32:00,
2013-01-21 22:40:00,20.0,18.0,30.31,North,-999,0.0,0.0,92,-99.99,,,-99.99,0.000000,,2013-01-22 06:40:00,
2013-01-21 23:22:00,20.0,18.0,30.31,North,-999,0.0,0.0,92,-99.99,,,-99.99,0.000000,,2013-01-22 07:22:00,
2013-01-21 23:40:00,19.0,17.0,30.31,South,177,2.0,3.0,92,-99.99,,,-99.99,0.000000,,2013-01-22 07:40:00,